Location: Goettingen
(51.5300°N, 9.9433°E)
Time: 19:39:53
(UTC+02:00)

ISS - Pass Details

Date: 16 July 2019
Orbit: 409 x 418 km, 51.6° (Epoch: 20 July)

Event Time Altitude Azimuth Distance (km) Brightness Sun altitude
Rises 03:06:45 0° 279° (W) 2,348 -0.1 -13.8°
Reaches altitude 10° 03:08:51 10° 278° (W) 1,484 -1.1 -13.6°
Maximum altitude 03:12:11 82° 190° (S) 421 -3.9 -13.4°
Drops below altitude 10° 03:15:29 10° 104° (ESE) 1,477 -0.8 -13.2°
Sets 03:17:34 0° 103° (ESE) 2,336 0.2 -13.1°
